This is the latest recevied weather packets stored in our database for station/object WA7CUG. If no packets are shown the sender has not sent any weather packets the latest 10 day(s).
| Time | Temp. | Humidity | Pressure | Rain* | Wind** | Luminosity | Snow |
|---|---|---|---|---|---|---|---|
| 1777427206 | 18.33° C | 44% | 1017.3 hPa | 0 mm | - | 52 W/m² | - |
| 1777426905 | 18.33° C | 44% | 1017.6 hPa | 0 mm | - | 49 W/m² | - |
| 1777426602 | 18.33° C | 44% | 1017.4 hPa | 0 mm | - | 45 W/m² | - |
| 1777426298 | 18.89° C | 41% | 1017.3 hPa | 0 mm | - | 49 W/m² | - |
| 1777425993 | 18.89° C | 40% | 1017.4 hPa | 0 mm | - | 53 W/m² | - |
| 1777425688 | 18.89° C | 40% | 1017.2 hPa | 0 mm | - | 54 W/m² | - |
| 1777425383 | 19.44° C | 40% | 1017.2 hPa | 0 mm | - | 60 W/m² | - |
| 1777425080 | 19.44° C | 40% | 1017.2 hPa | 0 mm | - | 68 W/m² | - |
| 1777424776 | 20.56° C | 39% | 1017.4 hPa | 0 mm | - | 89 W/m² | - |
| 1777424471 | 20.56° C | 38% | 1017.3 hPa | 0 mm | - | 196 W/m² | - |
| 1777424166 | 20° C | 39% | 1017.3 hPa | 0 mm | - | 224 W/m² | - |
| 1777423865 | 20.56° C | 39% | 1017.3 hPa | 0 mm | - | 225 W/m² | - |
| 1777423560 | 20° C | 41% | 1017.3 hPa | 0 mm | - | 283 W/m² | - |
| 1777423256 | 20° C | 38% | 1017.1 hPa | 0 mm | - | 120 W/m² | - |
| 1777422950 | 20.56° C | 40% | 1017 hPa | 0 mm | - | 230 W/m² | - |
| 1777422646 | 20.56° C | 41% | 1017.2 hPa | 0 mm | - | 108 W/m² | - |
| 1777422342 | 20.56° C | 37% | 1017.2 hPa | 0 mm | - | 117 W/m² | - |
| 1777422036 | 21.11° C | 36% | 1017 hPa | 0 mm | - | 132 W/m² | - |
| 1777421731 | 21.11° C | 36% | 1017.2 hPa | 0 mm | - | 164 W/m² | - |
| 1777421427 | 21.11° C | 37% | 1017.3 hPa | 0 mm | - | 176 W/m² | - |
| 1777421123 | 21.11° C | 36% | 1017.1 hPa | 0 mm | - | 188 W/m² | - |
| 1777420820 | 20.56° C | 40% | 1017 hPa | 0 mm | - | 236 W/m² | - |
| 1777420516 | 20.56° C | 38% | 1017.1 hPa | 0 mm | - | 191 W/m² | - |
| 1777420212 | 20.56° C | 39% | 1017.1 hPa | 0 mm | - | 177 W/m² | - |
| 1777419908 | 20.56° C | 40% | 1016.9 hPa | 0 mm | - | 172 W/m² | - |
* Rain latest hour (hover to see other rain measurements)
** Current wind speed in m/s (hover to see current wind gust speed)